Погода в Сосьве

Россия / Свердловская область     59°10′27″N   61°50′57″E
темп.,
°C
ветер,
м/с
пор.,
м/с
влажн.,
%
обл.,
%
осадки,
мм/ч
давл.,
гПа
погр.,
м
28 сентября, вт
вт2823:00+1св311875 0.0 1030297
02:00−1св38965 0.0 1030170
05:00−2ссв37975 0.0 1030161
08:00−1ссв38935 0.0 1030233
11:00+5св356312 0.0 1029640
14:00+8св345186 0.0 10281555
17:00+6ссв2559100 0.0 1027205
20:00+5ссв2566100 0.0 1028118
29 сентября, ср
ср2923:00+4ссв2367100 0.0 102769
02:00+4с2570100 0.0 1027128
05:00+2с267692 0.0 1028164
08:000с26825 0.0 1028177
11:00+6с24575 0.0 1028648
14:00+8с33475 0.0 10271326
17:00+7с24515 0.0 1026900
20:00+2ссз22765 0.0 102724
30 сентября, чт
чт3023:000ссз228436 0.0 102712
02:00−1зсз228937 0.0 102622
05:00−2зсз22935 0.0 102615
08:00−1з23865 0.0 102583
11:00+6з235735 0.0 1023538
14:00+9з3448100 0.0 10211180
17:00+8зсз2359100 0.0 102087
20:00+5зсз2681100 0.0 1020260
1 октября, пт
пт123:00+5сз3993100 0.3 1020525
02:00+5с497689 0.2 1021811
05:00+1с3109748 0.2 1023435
08:000ссз389326 0.0 1025368
11:00+4ссз366420 0.0 1026920
14:00+7ссз355166 0.0 10261320
17:00+6сз245895 0.0 1026949
20:00+1сз11805 0.0 102610
2 октября, сб
сб223:000зюз118282 0.0 102610
02:00+2юз1271100 0.0 102549
05:00+1зсз228799 0.0 102537
08:000ссз258890 0.0 1026131
11:00+6ссз24615 0.0 1026606
14:00+8ссз34475 0.0 10261156
17:00+7ссз235030 0.0 1027129
20:00+2ссв1168100 0.0 102810